Location: Bun Machan
(52.1403°N, 7.3744°W)
Time: 01:04:10
(UTC+00:00)

Cosmos 192 - Pass Details

Date: 14 July 2020
Orbit: 702 x 712 km, 74.0° (Epoch: 11 August)

Event Time Altitude Azimuth Distance (km) Brightness Sun altitude
Rises 02:39:55 0° 334° (NNW) 3,107 8.2 -11.4°
Reaches altitude 10° 02:42:15 10° 333° (NNW) 2,183 7.3 -11.2°
Maximum altitude 02:47:11 81° 247° (WSW) 718 4.3 -10.8°
Drops below altitude 10° 02:52:04 10° 161° (SSE) 2,165 6.5 -10.4°
Sets 02:54:22 0° 160° (SSE) 3,079 7.3 -10.3°
